HP3ICC-13 Weather Reports


time (UTC)temp
C
wind
direction
speed
KPH
gust
KPH
rain 1hr
cm
rain 24hr
cm
rain mn
cm
humidity
%
barometer
mb
20260504100305 27 1 8.0 17.7 0.00 0.00 0.00 81 1010.0
20260504100204 27 1 8.0 17.7 0.00 0.00 0.00 81 1010.0
20260504080301 27 1 8.0 17.7 0.00 0.00 0.00 81 1010.0
20260504080201 27 1 8.0 17.7 0.00 0.00 0.00 81 1010.0
20260504070259 27 1 8.0 17.7 0.00 0.00 0.00 81 1011.0
20260504070159 27 1 8.0 17.7 0.00 0.00 0.00 81 1011.0
20260504060158 27 1 8.0 17.7 0.00 0.00 0.00 81 1011.0
20260504050257 27 1 8.0 17.7 0.00 0.00 0.00 81 1012.0
20260504050156 27 1 8.0 17.7 0.00 0.00 0.00 81 1012.0
20260504044256 27 1 8.0 17.7 0.00 0.00 0.00 81 1012.0
20260504044156 27 1 8.0 17.7 0.00 0.00 0.00 81 1012.0
20260504042255 27 1 8.0 17.7 0.00 0.00 0.00 81 1012.0
20260504042156 27 1 8.0 17.7 0.00 0.00 0.00 81 1012.0
20260504040255 27 1 8.0 17.7 0.00 0.00 0.00 81 1012.0
20260504040155 27 1 8.0 17.7 0.00 0.00 0.00 81 1012.0
20260504034255 27 1 8.0 17.7 0.00 0.00 0.00 81 1012.0
20260504034154 27 1 8.0 17.7 0.00 0.00 0.00 81 1012.0
20260504032254 27 1 8.0 17.7 0.00 0.00 0.00 81 1011.0
20260504032154 27 1 8.0 17.7 0.00 0.00 0.00 81 1011.0
20260504030253 27 1 8.0 17.7 0.00 0.00 0.00 81 1011.0
20260504030153 27 1 8.0 17.7 0.00 0.00 0.00 81 1011.0
20260504024253 27 1 8.0 17.7 0.00 0.00 0.00 81 1011.0
20260504024153 27 1 8.0 17.7 0.00 0.00 0.00 81 1011.0
20260504022253 27 1 8.0 17.7 0.00 0.00 0.00 81 1011.0
20260504022152 27 1 8.0 17.7 0.00 0.00 0.00 81 1011.0
20260504020252 27 1 8.0 17.7 0.00 0.00 0.00 81 1011.0
20260504020152 27 1 8.0 17.7 0.00 0.00 0.00 81 1011.0
20260504014251 27 1 8.0 17.7 0.00 0.00 0.00 81 1011.0
20260504014151 27 1 8.0 17.7 0.00 0.00 0.00 81 1011.0
20260504012251 27 1 8.0 17.7 0.00 0.00 0.00 81 1010.0
20260504012151 27 1 8.0 17.7 0.00 0.00 0.00 81 1010.0
20260504010251 27 1 9.7 19.3 0.00 0.00 0.00 81 1010.0
20260504010150 27 1 9.7 19.3 0.00 0.00 0.00 81 1010.0
20260504004250 28 2 12.9 24.1 0.00 0.00 0.00 74 1010.0
20260504004149 28 2 12.9 24.1 0.00 0.00 0.00 74 1010.0
20260504002249 28 2 12.9 24.1 0.00 0.00 0.00 74 1010.0
20260504002149 28 2 12.9 24.1 0.00 0.00 0.00 74 1010.0
20260504000248 28 2 12.9 24.1 0.03 0.00 0.00 74 1010.0
20260504000148 28 2 12.9 24.1 0.03 0.00 0.00 74 1010.0
20260503234248 28 2 12.9 24.1 0.05 0.00 0.00 74 1010.0
20260503234148 28 2 12.9 24.1 0.05 0.00 0.00 74 1010.0
20260503232247 28 2 12.9 24.1 0.08 0.00 0.00 74 1009.0
20260503232147 28 2 12.9 24.1 0.08 0.00 0.00 74 1009.0
20260503230247 28 2 14.5 25.7 0.13 0.00 0.00 74 1009.0
20260503230147 28 2 14.5 25.7 0.13 0.00 0.00 74 1009.0
20260503224246 30 43 8.0 11.3 0.10 0.00 0.00 68 1009.0
20260503224146 30 43 8.0 11.3 0.10 0.00 0.00 68 1009.0
20260503222246 30 43 8.0 11.3 0.03 0.00 0.00 68 1009.0
20260503222146 30 43 8.0 11.3 0.03 0.00 0.00 68 1009.0
20260503220245 30 43 8.0 11.3 0.00 0.00 0.00 68 1009.0
20260503220145 30 43 8.0 11.3 0.00 0.00 0.00 68 1009.0
20260503214244 30 43 8.0 11.3 0.00 0.00 0.00 68 1009.0
20260503214144 30 43 8.0 11.3 0.00 0.00 0.00 68 1009.0
20260503212244 30 43 8.0 11.3 0.00 0.00 0.00 68 1009.0
20260503212144 30 43 8.0 11.3 0.00 0.00 0.00 68 1009.0
20260503210243 30 43 8.0 11.3 0.00 0.00 0.00 68 1009.0
20260503210143 30 43 8.0 11.3 0.00 0.00 0.00 68 1009.0
20260503204243 30 43 8.0 11.3 0.08 0.00 0.00 68 1009.0
20260503204142 30 43 8.0 11.3 0.08 0.00 0.00 68 1009.0
20260503202242 30 43 8.0 11.3 0.00 0.00 0.00 68 1009.0
20260503202142 30 43 8.0 11.3 0.00 0.00 0.00 68 1009.0
20260503200242 30 43 8.0 11.3 0.05 0.00 0.00 68 1009.0
20260503200142 30 43 8.0 11.3 0.05 0.00 0.00 68 1009.0
20260503194241 30 43 8.0 11.3 0.00 0.00 0.00 68 1009.0
20260503194141 30 43 8.0 11.3 0.00 0.00 0.00 68 1009.0
20260503192241 30 43 8.0 11.3 0.05 0.00 0.00 68 1010.0
20260503192140 30 43 8.0 11.3 0.05 0.00 0.00 68 1010.0
20260503190240 30 43 8.0 11.3 0.00 0.00 0.00 68 1010.0
20260503190140 30 43 8.0 11.3 0.00 0.00 0.00 68 1010.0
20260503184239 30 43 8.0 11.3 0.05 0.00 0.00 68 1010.0
20260503184139 30 43 8.0 11.3 0.05 0.00 0.00 68 1010.0
20260503182239 28 334 4.8 8.0 0.00 0.00 0.00 73 1011.0
20260503182139 28 334 4.8 8.0 0.00 0.00 0.00 73 1011.0
20260503180238 27 197 4.8 6.4 0.00 0.00 0.00 74 1011.0
20260503180138 27 197 4.8 6.4 0.00 0.00 0.00 74 1011.0
20260503174238 27 197 4.8 6.4 0.00 0.00 0.00 74 1011.0
20260503174137 27 197 4.8 6.4 0.00 0.00 0.00 74 1011.0
20260503172237 27 197 4.8 6.4 0.00 0.00 0.00 74 1012.0
20260503172137 27 197 4.8 6.4 0.00 0.00 0.00 74 1012.0
20260503170237 27 197 4.8 6.4 0.00 0.00 0.00 74 1012.0
20260503170136 27 197 4.8 6.4 0.00 0.00 0.00 74 1012.0
20260503160134 27 197 4.8 6.4 0.00 0.00 0.00 74 1012.0
20260503150233 27 197 4.8 6.4 0.00 0.00 0.00 74 1012.0
20260503150133 27 197 4.8 6.4 0.00 0.00 0.00 74 1012.0
20260503140231 27 197 4.8 6.4 0.00 0.00 0.00 74 1012.0
20260503140131 27 197 4.8 6.4 0.00 0.00 0.00 74 1012.0
20260503130229 27 197 4.8 6.4 0.00 0.00 0.00 74 1011.0
20260503130129 27 197 4.8 6.4 0.00 0.00 0.00 74 1011.0
20260503120128 27 197 4.8 6.4 0.00 0.00 0.00 74 1011.0
20260503110226 27 197 4.8 6.4 0.00 0.00 0.00 74 1011.0
20260503110126 27 197 4.8 6.4 0.00 0.00 0.00 74 1011.0